Regional Weather Roundup
Issued by NWS

Home | Current Version | Previous Version | Text Only | Print | Product List | Glossary Off
Versions: 1 2 3 4 5 6 7 8 9 10 11 12 13 14 15 16 17 18 19 20 21 22 23 24 25 26 27 28 29 30 31 32 33 34 35 36 37 38 39 40 41 42 43 44 45 46 47 48 49 50

000
ASUS43 KIND 300109
RWRIN

WEATHER ROUNDUP FOR INDIANA
NATIONAL WEATHER SERVICE INDIANAPOLIS IN
900 PM EDT FRI MAY 29 2015

NOTE: "FAIR" INDICATES FEW OR NO CLOUDS BELOW 12,000 FEET WITH NO
SIGNIFICANT WEATHER AND/OR OBSTRUCTIONS TO VISIBILITY.

* - STATION DOES NOT REPORT WEATHER SUCH AS PRECIPITATION OR FOG.

+ - STATION NOT QUALITY CONTROLLED BY THE NATIONAL WEATHER SERVICE.
    USE DATA WITH CAUTION...ESPECIALLY DEWPOINT AND RELATIVE
    HUMIDITY OBSERVATIONS.

INZ001>003-010>013-019-020-300200-
NORTHWEST INDIANA

CITY           SKY/WX    TMP DP  RH WIND       PRES   REMARKS
GARY /AIRPORT/ MOCLDY    73  68  83 SW12      29.94R
KNOX *+        MOCLDY    79  61  53 S17       29.94R
LA PORTE +     MOCLDY    82  61  48 SW9       29.95R
MICHIGAN CITY+ CLOUDY    79  59  50 SW6       29.94R
MONTICELLO +   MOCLDY    78  66  65 S10       29.97R
RENSSELAER +   CLOUDY    81  61  50 SW14      29.96R
VALPARAISO     LGT RAIN  72  68  87 W9        29.95R

$$

LMZ046-743>745-300200-
SOUTHERN LAKE MICHIGAN

STATION/POSITION TIME  TEMP    WIND        PRES    WAVE
                       AIR SEA DIR/SP/G            HT
                 (UTC) (F)     (DEG/KT/KT) (MB)    (FT)
BURNS HARBOR     0100   80     210/ 14/ 24 1013.2F
MICHIGAN CITY    0100          280/  5/  8   N/A
5NW MICH CITY    0100   65 56  330/  4/  8   N/A     1

$$

INZ004-005-014>016-021>024-300200-
NORTH CENTRAL INDIANA

CITY           SKY/WX    TMP DP  RH WIND       PRES   REMARKS
ELKHART        CLEAR     81  59  47 SW6       29.95S
GOSHEN         PTCLDY    79  64  60 S12       29.95S
LOGANSPORT +   PTCLDY    79  59  50 S10       29.99R
PERU/GRISSOM   CLOUDY    79  64  61 SW12      29.99R
ROCHESTER +    PTCLDY    81  64  57 SW8       29.98R
SOUTH BEND     PTCLDY    79  62  56 S9        29.94S

$$

INZ006>009-017-018-025>027-300200-
NORTHEAST INDIANA

CITY           SKY/WX    TMP DP  RH WIND       PRES   REMARKS
ANGOLA *+      MOCLDY    81  73  78 S8        29.98R
FORT WAYNE     MOCLDY    79  63  57 S15       29.99S
HUNTINGTON +   CLEAR     78  63  60 S7        29.99R

$$

INZ028-029-035-036-043>045-051>053-300200-
WEST CENTRAL INDIANA

CITY           SKY/WX    TMP DP  RH WIND       PRES   REMARKS
CRAWFORDSVL +  PTCLDY    76  59  56 S9        30.01R
GREENCASTLE +  CLEAR     73  61  64 S9        30.02S
LAFAYETTE      PTCLDY    78  63  59 S8        29.97S
TERRE HAUTE    PTCLDY    78  65  63 S7        30.00S

$$

INZ030>032-037>040-046>048-054>057-064-065-300200-
CENTRAL INDIANA

CITY           SKY/WX    TMP DP  RH WIND       PRES   REMARKS
CP ATTERBURY + CLEAR     72  64  78 S5        30.04S
COLUMBUS       PTCLDY    77  63  61 S9        30.03S
FISHERS *+     CLEAR     75  66  73 SW9       30.02R
FRANKFORT +    PTCLDY    77  64  63 S6        30.03R
GREENWOOD *+   CLEAR     79  61  53 S9        30.03S
INDIANAPOLIS   PTCLDY    77  62  59 S13       30.00S
-EAGLE CREEK   CLEAR     77  63  61 SW9       30.01R
KOKOMO *+      PTCLDY    79  63  57 SW10      29.99S
MARION +       CLEAR     78  60  53 SW14G20   30.01S
MT COMFORT *+  CLEAR     79  54  41 S9        30.03R
SHELBYVILLE    CLEAR     79  64  60 S12       30.02S
ZIONSVILLE +   PTCLDY    78  62  57 S9        30.03R

$$

INZ033-034-041-042-049-050-058-059-300200-
EAST CENTRAL INDIANA

CITY           SKY/WX    TMP DP  RH WIND       PRES   REMARKS
MUNCIE         CLEAR     79  62  56 S9        30.02R

$$

INZ060-061-067>069-081>083-085>088-300200-
SOUTHWEST INDIANA

CITY           SKY/WX    TMP DP  RH WIND       PRES   REMARKS
EVANSVILLE     CLEAR     79  66  64 S6        30.02R
HUNTINGBURG *+ CLEAR     75  66  73 S6        30.04S
WASHINGTON +   CLEAR     77  64  63 S7        30.02R

$$

INZ062-063-066-070>080-084-089>092-300200-
SOUTH CENTRAL AND SOUTHEAST INDIANA

CITY           SKY/WX    TMP DP  RH WIND       PRES   REMARKS
BLOOMINGTON    CLEAR     75  65  70 S5        30.04R
MADISON *+     CLEAR     77  61  57 S6        30.08R
NORTH VERNON + CLEAR     75  64  69 S5        30.05S
SEYMOUR +      CLEAR     79  64  61 S6        30.04R

$$




USA.gov is the U.S. government's official web portal to all federal, state and local government web resources and services.